Satellite: NO-44
Catalog number: 26931
Epoch time:      11158.94665621
Element set:    0773
Inclination:      067.0522 deg
RA of node:       007.3378 deg
Eccentricity:    0.0006762
Arg of perigee:   260.1028 deg
Mean anomaly:     099.9332 deg
Mean motion:   14.29663507 rev/day
Decay rate:       2.84e-06 rev/day^2
Epoch rev:           50560
Checksum:              309

Satellite: SO-50
Catalog number: 27607
Epoch time:      11158.82427653
Element set:    0486
Inclination:      064.5586 deg
RA of node:       356.1272 deg
Eccentricity:    0.0071501
Arg of perigee:   323.3095 deg
Mean anomaly:     036.3165 deg
Mean motion:   14.71754006 rev/day
Decay rate:       2.61e-06 rev/day^2
Epoch rev:           45471
Checksum:              296

Satellite: CO-55
Catalog number: 27844
Epoch time:      11159.51498684
Element set:     127
Inclination:      098.7047 deg
RA of node:       168.3411 deg
Eccentricity:    0.0008920
Arg of perigee:   221.9990 deg
Mean anomaly:     138.0496 deg
Mean motion:   14.20814475 rev/day
Decay rate:       1.37e-06 rev/day^2
Epoch rev:           41168
Checksum:              325

Satellite: CO-57
Catalog number: 27848
Epoch time:      11159.24574453
Element set:      76
Inclination:      098.7117 deg
RA of node:       167.2623 deg
Eccentricity:    0.0008722
Arg of perigee:   226.5942 deg
Mean anomaly:     133.4498 deg
Mean motion:   14.20593852 rev/day
Decay rate:       1.40e-06 rev/day^2
Epoch rev:           41159
Checksum:              320

Satellite: AO-51
Catalog number: 28375
Epoch time:      11158.59662512
Element set:     989
Inclination:      098.0975 deg
RA of node:       137.5475 deg
Eccentricity:    0.0084732
Arg of perigee:   098.6826 deg
Mean anomaly:     262.3984 deg
Mean motion:   14.40759237 rev/day
Decay rate:        6.5e-07 rev/day^2
Epoch rev:           36468
Checksum:              367

Satellite: CP3
Catalog number: 31129
Epoch time:      11158.50488684
Element set:    0890
Inclination:      097.8995 deg
RA of node:       183.2777 deg
Eccentricity:    0.0101335
Arg of perigee:   210.4514 deg
Mean anomaly:     149.0796 deg
Mean motion:   14.52489461 rev/day
Decay rate:       2.81e-06 rev/day^2
Epoch rev:           21943
Checksum:              326

Satellite: CO-65
Catalog number: 32785
Epoch time:      11158.69336211
Element set:    0012
Inclination:      097.8496 deg
RA of node:       222.7681 deg
Eccentricity:    0.0014282
Arg of perigee:   202.7771 deg
Mean anomaly:     157.2790 deg
Mean motion:   14.82011370 rev/day
Decay rate:      1.070e-05 rev/day^2
Epoch rev:           16813
Checksum:              294

Satellite: PRISM
Catalog number: 33493
Epoch time:      11159.85401067
Element set:     658
Inclination:      098.1245 deg
RA of node:       288.3442 deg
Eccentricity:    0.0021075
Arg of perigee:   070.0564 deg
Mean anomaly:     290.2927 deg
Mean motion:   14.81717242 rev/day
Decay rate:      1.489e-05 rev/day^2
Epoch rev:           12828
Checksum:              305

Satellite: SOHLA-1
Catalog number: 33496
Epoch time:      11158.92672727
Element set:    0455
Inclination:      098.0801 deg
RA of node:       268.8523 deg
Eccentricity:    0.0007094
Arg of perigee:   145.2640 deg
Mean anomaly:     214.9026 deg
Mean motion:   14.69621554 rev/day
Decay rate:       2.38e-06 rev/day^2
Epoch rev:           12712
Checksum:              303

Satellite: TISAT-1
Catalog number: 36799
Epoch time:      11159.82414608
Element set:     933
Inclination:      098.1023 deg
RA of node:       227.9912 deg
Eccentricity:    0.0014214
Arg of perigee:   307.6950 deg
Mean anomaly:     052.2972 deg
Mean motion:   14.80569162 rev/day
Decay rate:       9.97e-06 rev/day^2
Epoch rev:            4907
Checksum:              321

Satellite: STUDSAT
Catalog number: 36801
Epoch time:      11158.88670225
Element set:    0211
Inclination:      098.1055 deg
RA of node:       226.9077 deg
Eccentricity:    0.0012459
Arg of perigee:   298.8740 deg
Mean anomaly:     061.1219 deg
Mean motion:   14.80640357 rev/day
Decay rate:      2.579e-05 rev/day^2
Epoch rev:           04892
Checksum:              308

Satellite: RAX
Catalog number: 37223
Epoch time:      11152.36844328
Element set:    0173
Inclination:      071.9713 deg
RA of node:       073.6151 deg
Eccentricity:    0.0021634
Arg of perigee:   311.5989 deg
Mean anomaly:     048.3343 deg
Mean motion:   14.77415682 rev/day
Decay rate:       6.35e-06 rev/day^2
Epoch rev:           02854
Checksum:              291

Satellite: OOREOS
Catalog number: 37224
Epoch time:      11153.29456974
Element set:    0179
Inclination:      071.9726 deg
RA of node:       071.8135 deg
Eccentricity:    0.0020315
Arg of perigee:   307.7637 deg
Mean anomaly:     052.1684 deg
Mean motion:   14.77036357 rev/day
Decay rate:       4.92e-06 rev/day^2
Epoch rev:           02867
Checksum:              309

Satellite: FO-69
Catalog number: 37227
Epoch time:      11159.18289523
Element set:    0048
Inclination:      071.9711 deg
RA of node:       059.1227 deg
Eccentricity:    0.0018321
Arg of perigee:   295.1692 deg
Mean anomaly:     064.7569 deg
Mean motion:   14.76594320 rev/day
Decay rate:       3.28e-06 rev/day^2
Epoch rev:           00799
Checksum:              330

